Regional Weather Roundup
Issued by NWS Memphis, TN

Home | Current Version | Previous Version | Text Only | Print | Product List | Glossary On
Versions: 1 2 3 4 5 6 7 8 9 10 11 12 13 14 15 16 17 18 19 20 21 22 23 24 25 26 27 28 29 30 31 32 33 34 35 36 37 38 39 40 41 42 43 44 45 46 47 48 49 50
000
ASUS44 KMEG 020910
RWRMEG
MEMPHIS CWA HOURLY WEATHER ROUNDUP
NATIONAL WEATHER SERVICE MEMPHIS TN
400 AM CDT SAT AUG 02 2014

...WEST TENNESSEE...

CITY           SKY/WX    TMP DP  RH WIND       PRES   REMARKS
MEMPHIS INTL   PTCLDY    76  64  66 E3        30.03S
NWS MEMPHIS      N/A     69 N/A N/A MISG        N/A
JACKSON        CLEAR     64  62  93 CALM      30.03F FOG
LEXINGTON      MOCLDY    64  63  94 CALM      30.03S VSB 1/2
SAVANNAH       PTCLDY    66  66 100 CALM      30.03F
DYERSBURG      CLEAR     66  57  72 CALM      30.05S
UNION CITY     CLEAR     64  64 100 CALM      30.04R
PARIS          PTCLDY    62  60  93 NE3       30.05S


...EASTERN ARKANSAS...

CITY           SKY/WX    TMP DP  RH WIND       PRES   REMARKS
JONESBORO      CLEAR     67  62  84 CALM      30.04S
WEST MEMPHIS   CLOUDY    69  68  96 CALM      30.02S
BATESVILLE     CLEAR     66  64  94 W3        30.06S
NEWPORT        CLEAR     67  66  96 N7        30.06S
WALNUT RIDGE   CLEAR     66  57  72 N6        30.05S
BLYTHEVILLE    CLEAR     66  64  93 NW5       30.04S
SEARCY         CLEAR     68  67  96 N6        30.06R
STUTTGART      CLOUDY    72  68  88 NW6       30.04S
PINE BLUFF     CLOUDY    71  67  87 N3        30.02S
MONTICELLO     CLOUDY    71  69  93 CALM      30.01S FOG


...NORTH MISSISSIPPI...

CITY           SKY/WX    TMP DP  RH WIND       PRES   REMARKS
TUPELO         MOCLDY    72  67  84 NE5       30.02R
OLIVE BRANCH   MOCLDY    70  70 100 CALM      30.03F
CLARKSDALE     CLOUDY    72  72 100 CALM      30.02S
CORINTH          N/A     70  66  88 CALM      30.02F FOG
GRENADA        CLOUDY    70  68  94 CALM      30.02R
GREENWOOD      LGT RAIN  71  68  90 NW3       30.02S
COLUMBUS       CLOUDY    73  69  89 CALM      30.00S
STARKVILLE     CLOUDY    70  68  94 CALM      30.00F
GOLDEN TRIANGL CLOUDY    72  66  83 CALM      30.01S


...SOUTHEAST MISSOURI...

CITY           SKY/WX    TMP DP  RH WIND       PRES   REMARKS
WEST PLAINS    PTCLDY    62  59  90 CALM      30.10F
POPLAR BLUFF   CLEAR     65  61  87 NW3       30.05S
CAPE GIRARDEAU CLOUDY    67  64  90 CALM      30.06S


...NORTHWEST ALABAMA...

CITY           SKY/WX    TMP DP  RH WIND       PRES   REMARKS
MUSCLE SHOALS  MOCLDY    71  67  87 CALM      30.04S


...MIDDLE TENNESSEE...

CITY           SKY/WX    TMP DP  RH WIND       PRES   REMARKS
NASHVILLE      MOCLDY    71  67  87 CALM      30.04S
CLARKSVILLE    MOCLDY    69  58  67 CALM      30.04R
DICKSON        MOCLDY    66  63  88 CALM      30.05R
COLUMBIA       CLEAR     66  66 100 CALM      30.03S
LEWISBURG      CLEAR     67  65  93 CALM      30.04S


...WESTERN KENTUCKY...

CITY           SKY/WX    TMP DP  RH WIND       PRES   REMARKS
PADUCAH        CLOUDY    69  65  86 CALM      30.05R
FORT CAMPBELL  MOCLDY    65  62  91 N5        30.04S


...CENTRAL ARKANSAS...

CITY           SKY/WX    TMP DP  RH WIND       PRES   REMARKS
LITTLE ROCK    MOCLDY    71  67  87 N5        30.04S


SKY/WX REPORTED AS FAIR MEANS FEW OR NO CLOUDS BELOW
12 THOUSAND FEET.




USA.gov is the U.S. government's official web portal to all federal, state and local government web resources and services.